STARLINK-37824

Last updated on Sun Aug 09 2026 00:02:04 GMT+0000 (Coordinated Universal Time)

1 69956U 26157P 26220.58335648 -.00005186 00000+0 -85218-4 0 9999 2 69956 53.1586 174.8852 0001753 102.6246 0.0725 15.49310712 6088
UTC large
Height (km)
Speed (km/s)
/
Latitude / Longitude
Inclination (degrees)
Orbital Period (minutes)
Azimuth
Elevation
Range (km)
Doppler Factor

Next 0 passes for location: London (51.5072 / 0.1276)

No passes found over London.
STARLINK-37824